C/2017 K2 ( PanSTARRS )

Japanese version
Home page
Updated on December 9, 2019

---------------------------------------------------------------------

* Profile

Discovery Date May 21, 2017
Magnitude 20.8 mag
Discoverer Pan-STARRS 1 telescope (Haleakala)

* Pictures

* Orbital Elements

Epoch 2022 Dec. 7.0 TT = JDT 2459920.5
T 2022 Dec. 19.66996 TT                                 Williams
q   1.7969715            (2000.0)            P               Q
z  -0.0004771      Peri.  236.19640     +0.01818312     +0.04923216
 +/-0.0000011      Node    88.23540     -0.18096147     +0.98245372
e   1.0008574      Incl.   87.56307     -0.98332208     -0.17989129
From 1493 observations 2013 May 12-2019 Oct. 25, mean residual 0".4.

* Finding Charts

* Magnitudes Graph

        m1 = 1.0 + 5 log d + 10.0 log r

---------------------------------------------------------------------

The orbital elements are published on M.P.E.C. 2019-V116.
The charts are made with StellaNavigator Ver.10 (AstroArts).
The magnitudes graphs are made with Comet for Windows.

---------------------------------------------------------------------

Copyright(C) Seiichi Yoshida (comet@aerith.net). All rights reserved.